Weather in Papulino

Russia / Vladimir Oblast     55°33′31″N   41°45′43″E
temp.,
°C
wind,
m/s
gust,
m/s
humid.,
%
clouds,
%
prec.,
mm/h
press.,
hPa
HPBL,
m
3 march, wed
wed300:00−2wnw4109599 0.1 1006347
03:00−4nw5119193 0.1 1008481
06:00−7nw5129373 0.0 1010420
09:00−7nw6129082 0.0 1012462
12:00−4nw6108475 0.0 1012816
15:00−2wnw598251 0.0 10121009
18:00−2w4108999 0.1 1010660
21:00−3w5119492 0.1 1009470
4 march, thu
thu400:00−2wsw61293100 0.2 1006734
03:00−2wsw61394100 0.3 1004711
06:00−1wsw71495100 0.6 999844
09:00+1w81496100 1.4 9981031
12:000wnw81395100 2.4 998994
15:000wnw51071100 2.4 9991068
18:00−3wnw3686100 0.0 1000150
21:00−5wnw2291100 0.0 100043
5 march, fri
fri500:00−6nw2392100 0.0 100063
03:00−7nnw2495100 0.0 1001115
06:00−9nnw349696 0.1 100378
09:00−9nnw249470 0.1 1005167
12:00−4nw228242 0.0 1006477
15:00−3wsw237656 0.0 1007865
18:00−5sw229598 0.1 100833
21:00−7w239798 1.0 101086
6 march, sat
sat600:00−9wnw489399 0.4 1011232
03:00−12wnw359558 0.4 1012111
06:00−13wnw359653 0.0 101399
09:00−11nw369357 0.1 1015274
12:00−9nw468295 0.0 1015765
15:00−9nw467795 0.1 1015986
18:00−12wnw358999 0.0 1015111
21:00−14w339449 0.0 101553
7 march, sun
sun700:00−15wsw359473 0.0 1014113
03:00−14sw499036 0.0 1012207
06:00−12ssw6148744 0.0 1008438
09:00−9ssw8159172 0.1 1003894
12:00−6sw91590100 0.9 9981210
15:00−3sw81491100 2.0 9941138
18:00−7nw51292100 2.9 993856
21:00−10wsw238997 2.9 99337